(464677) = 2001 TB127 = 2005 SC186

Discovered at Kitt Peak on 2001-10-13 by Spacewatch.

Orbit

Orbit type: Main Belt

Note: WebGL enabled browser required.

epoch2023-02-25.0
epoch JD2460000.5
perihelion date2022-11-04.90757
perihelion JD2459888.40757
argument of perihelion (°)208.72356
ascending node (°)186.69288
inclination (°)3.03662
eccentricity0.1253063
perihelion distance (AU)2.2833741
Tisserand w.r.t. Jupiter3.4
ΔV w.r.t. Earth (km/sec)9.5
semimajor axis (AU)2.6104843
mean anomaly (°)26.19380
mean daily motion (°/day)0.23368040
aphelion distance (AU)2.938
period (years)4.22
P-vector [x]0.81504025
P-vector [y]0.54120653
P-vector [z]0.20689344
Q-vector [x]-0.57937145
Q-vector [y]0.76506962
Q-vector [z]0.28106439
absolute magnitude17.98
phase slope0.15
uncertainty0
referenceMPO 731438
observations used97
oppositions8
arc length (days)7702
first opposition used2001
last opposition used2022
residual rms (arc-secs)0.33
perturbers coarse indicatorM-v
perturbers precise indicator003El
first observation date used2001-10-13.0
last observation date used2022-11-14.0
computer nameMPCLINUX
Minimum Orbit Intersection Distances (in AU)
for orbit epoch: 2459800.5, reference: E2022-VG5
Mercury1.95497
Venus1.55959
Earth1.29062
Mars0.81363
Jupiter2.46665
Saturn6.57961
Uranus15.5747
Neptune27.5593

Observations

97 total observations over interval: 2001 10 13.45898 – 2022 11 14.347481
These data are available for download (format description).

Date (UT) J2000 RA J2000 Dec Magn Location Ref
2001 10 13.45898 03 22 33.73 +15 47 59.4 21.6 V 691 – Steward Observatory, Kitt Peak-Spacewatch MPS 39534
2001 10 13.48075 03 22 33.06 +15 47 54.4 21.6 V 691 – Steward Observatory, Kitt Peak-Spacewatch MPS 39534
2001 10 13.50229 03 22 32.42 +15 47 49.1 21.5 V 691 – Steward Observatory, Kitt Peak-Spacewatch MPS 39534
2001 10 14.47226 03 22 04.27 +15 44 00.0 21.3 V 691 – Steward Observatory, Kitt Peak-Spacewatch MPS 39534
2001 10 14.48734 03 22 03.79 +15 43 55.9 21.7 V 691 – Steward Observatory, Kitt Peak-Spacewatch MPS 39534
2001 10 14.50230 03 22 03.31 +15 43 52.4 21.4 V 691 – Steward Observatory, Kitt Peak-Spacewatch MPS 39534
2001 10 18.47979 03 19 50.91 +15 27 12.0   644 – Palomar Mountain/NEAT MPS 501614
2001 10 18.49028 03 19 50.49 +15 27 08.7 20.5 R 644 – Palomar Mountain/NEAT MPS 501614
2001 10 18.50086 03 19 50.15 +15 27 06.2   644 – Palomar Mountain/NEAT MPS 501614
2001 10 25.41299 03 15 04.83 +14 54 55.6 20.6 R 644 – Palomar Mountain/NEAT MPS 501614
2001 10 25.41416 03 15 04.81 +14 54 55.6 20.5 R 644 – Palomar Mountain/NEAT MPS 501614
2001 10 25.43528 03 15 03.77 +14 54 48.6 19.9 R 644 – Palomar Mountain/NEAT MPS 501614
2001 10 25.43760 03 15 03.63 +14 54 48.3 20.9 R 644 – Palomar Mountain/NEAT MPS 501614
2001 10 25.45874 03 15 02.68 +14 54 42.6 20.3 R 644 – Palomar Mountain/NEAT MPS 501614
2001 10 25.46234 03 15 02.51 +14 54 41.6 20.5 R 644 – Palomar Mountain/NEAT MPS 501614
2001 11 22.18745 02 51 10.78 +12 37 52.0 20.5 R 644 – Palomar Mountain/NEAT MPS 501614
2001 11 22.26962 02 51 06.66 +12 37 31.4 20.5 R 644 – Palomar Mountain/NEAT MPS 501614
2001 11 22.33741 02 51 03.31 +12 37 14.6   644 – Palomar Mountain/NEAT MPS 501614
2005 09 29.32300 00 52 58.04 +05 17 17.8 20.9 V G96 – Mt. Lemmon Survey MPS 144364
2005 09 29.33228 00 52 57.61 +05 17 14.0 20.7 V G96 – Mt. Lemmon Survey MPS 144364
2005 09 29.34161 00 52 57.14 +05 17 10.1 20.7 V G96 – Mt. Lemmon Survey MPS 144364
2005 09 29.35095 00 52 56.67 +05 17 06.4 20.6 V G96 – Mt. Lemmon Survey MPS 144364
2005 10 01.15833 00 51 31.52 +05 04 50.8 21.1 V 691 – Steward Observatory, Kitt Peak-Spacewatch MPS 144364
2005 10 01.17918 00 51 30.50 +05 04 42.8 21.0 V 691 – Steward Observatory, Kitt Peak-Spacewatch MPS 144364
2005 10 01.19660 00 51 29.65 +05 04 35.4 20.6 V 691 – Steward Observatory, Kitt Peak-Spacewatch MPS 144364
2005 10 25.24571 00 33 26.46 +02 29 04.2 20.9 V G96 – Mt. Lemmon Survey MPS 411553
2005 10 25.25294 00 33 26.13 +02 29 02.2 20.6 V G96 – Mt. Lemmon Survey MPS 411553
2005 10 25.26019 00 33 25.92 +02 29 00.2 20.8 V G96 – Mt. Lemmon Survey MPS 411553
2005 10 25.26744 00 33 25.59 +02 28 57.5 20.9 V G96 – Mt. Lemmon Survey MPS 411553
2009 09 22.23502 22 30 35.17 -07 25 10.5 21.1 V G96 – Mt. Lemmon Survey MPS 506300
2009 09 22.24221 22 30 34.92 -07 25 13.2 21.9 V G96 – Mt. Lemmon Survey MPS 506300
2009 09 22.24931 22 30 34.63 -07 25 14.8 20.8 V G96 – Mt. Lemmon Survey MPS 506300
2009 09 22.25631 22 30 34.38 -07 25 17.5 21.0 V G96 – Mt. Lemmon Survey MPS 506300
2013 07 15.49257 21 09 39.805 -11 58 27.49 21.7 w F51 – Pan-STARRS 1, Haleakala MPS 506300
2013 07 15.50687 21 09 39.192 -11 58 29.98 22.2 w F51 – Pan-STARRS 1, Haleakala MPS 506300
2014 11 26.44207 06 58 22.617 +18 07 00.53 21.4 w F51 – Pan-STARRS 1, Haleakala MPS 549639
2014 11 26.45471 06 58 22.274 +18 06 59.99 21.7 w F51 – Pan-STARRS 1, Haleakala MPS 549639
2014 11 26.48003 06 58 21.591 +18 06 58.50 21.5 w F51 – Pan-STARRS 1, Haleakala MPS 549639
2016 04 01.41432 13 17 45.516 -07 16 10.19 21.8 w F51 – Pan-STARRS 1, Haleakala MPS 695954
2016 04 01.42771 13 17 44.824 -07 16 05.65 22.1 w F51 – Pan-STARRS 1, Haleakala MPS 695954
2016 04 01.44114 13 17 44.155 -07 16 00.64 21.9 w F51 – Pan-STARRS 1, Haleakala MPS 695954
2016 04 01.45463 13 17 43.454 -07 15 55.74 21.9 w F51 – Pan-STARRS 1, Haleakala MPS 695954
2016 04 09.38492 13 11 06.988 -06 28 05.81 21.7 w F51 – Pan-STARRS 1, Haleakala MPS 701180
2016 04 09.39685 13 11 06.339 -06 28 01.52 21.8 w F51 – Pan-STARRS 1, Haleakala MPS 701180
2016 04 09.40884 13 11 05.720 -06 27 57.64 21.9 w F51 – Pan-STARRS 1, Haleakala MPS 701180
2016 04 09.42077 13 11 05.087 -06 27 53.00 21.9 w F51 – Pan-STARRS 1, Haleakala MPS 701180
2018 11 05.38037 04 41 06.50 +18 09 12.2 21.0 G G96 – Mt. Lemmon Survey MPS 937044
2018 11 05.38475 04 41 06.36 +18 09 11.6 21.1 G G96 – Mt. Lemmon Survey MPS 937044
2018 11 05.39516 04 41 05.92 +18 09 10.1 21.1 G G96 – Mt. Lemmon Survey MPS 937044
2018 11 05.40605 04 41 05.50 +18 09 07.1 22.0 G G96 – Mt. Lemmon Survey MPS 937044
2018 11 09.32163 04 38 25.40 +17 56 37.8 20.7 G G96 – Mt. Lemmon Survey MPS 938763
2018 11 09.32819 04 38 25.10 +17 56 36.2 20.7 G G96 – Mt. Lemmon Survey MPS 938763
2018 11 09.33335 04 38 24.87 +17 56 35.3 20.5 G G96 – Mt. Lemmon Survey MPS 938763
2018 11 09.33851 04 38 24.63 +17 56 34.6 20.8 G G96 – Mt. Lemmon Survey MPS 938763
2018 11 09.54547 04 38 15.292 +17 55 55.16 21.0 w F52 – Pan-STARRS 2, Haleakala MPS 940319
2018 11 09.55767 04 38 14.722 +17 55 52.69 20.9 w F52 – Pan-STARRS 2, Haleakala MPS 940319
2018 11 09.56987 04 38 14.165 +17 55 50.43 21.0 w F52 – Pan-STARRS 2, Haleakala MPS 940319
2018 11 09.58203 04 38 13.595 +17 55 48.03 20.9 w F52 – Pan-STARRS 2, Haleakala MPS 940319
2018 12 04.24550 04 15 46.60 +16 36 27.1   G96 – Mt. Lemmon Survey MPS 966902
2018 12 04.25112 04 15 46.25 +16 36 26.5 20.6 G G96 – Mt. Lemmon Survey MPS 966902
2018 12 04.25673 04 15 45.89 +16 36 25.7 20.9 G G96 – Mt. Lemmon Survey MPS 966902
2018 12 04.26234 04 15 45.57 +16 36 24.9 20.9 G G96 – Mt. Lemmon Survey MPS 966902
2022 09 19.488617 02 26 11.825 +13 11 24.34 21.32 w F51 – Pan-STARRS 1, Haleakala MPS 1653648
2022 09 19.497861 02 26 11.718 +13 11 22.95 21.25 w F51 – Pan-STARRS 1, Haleakala MPS 1653648
2022 09 19.507081 02 26 11.620 +13 11 21.50 21.30 w F51 – Pan-STARRS 1, Haleakala MPS 1653648
2022 09 19.516243 02 26 11.502 +13 11 19.89 21.21 w F51 – Pan-STARRS 1, Haleakala MPS 1653648
2022 10 01.426044 02 22 17.433 +12 27 55.84 21.09 w F52 – Pan-STARRS 2, Haleakala MPS 1663227
2022 10 01.437016 02 22 17.089 +12 27 52.89 20.87 w F52 – Pan-STARRS 2, Haleakala MPS 1663227
2022 10 01.448002 02 22 16.745 +12 27 49.93 20.90 w F52 – Pan-STARRS 2, Haleakala MPS 1663227
2022 10 01.459025 02 22 16.385 +12 27 47.03 21.13 w F52 – Pan-STARRS 2, Haleakala MPS 1663227
2022 10 17.701211 02 11 22.99 +10 59 55.4 20.3 R D29 – Purple Mountain Observatory, XuYi Station MPS 1684775
2022 10 17.718888 02 11 22.12 +10 59 49.5 21.1 R D29 – Purple Mountain Observatory, XuYi Station MPS 1684775
2022 10 17.736565 02 11 21.29 +10 59 43.4 21.1 R D29 – Purple Mountain Observatory, XuYi Station MPS 1684775
2022 10 19.638682 02 09 48.21 +10 48 05.8 20.8 R D29 – Purple Mountain Observatory, XuYi Station MPS 1700240
2022 10 19.656359 02 09 47.21 +10 47 59.3 20.8 R D29 – Purple Mountain Observatory, XuYi Station MPS 1700240
2022 10 23.345580 02 06 41.538 +10 25 10.46 20.36 w F52 – Pan-STARRS 2, Haleakala MPS 1700240
2022 10 23.357622 02 06 40.894 +10 25 05.97 20.35 w F52 – Pan-STARRS 2, Haleakala MPS 1700240
2022 10 23.369718 02 06 40.252 +10 25 01.53 20.31 w F52 – Pan-STARRS 2, Haleakala MPS 1700240
2022 10 28.335313 02 02 25.998 +09 54 19.19 20.53 w F52 – Pan-STARRS 2, Haleakala MPS 1700240
2022 10 28.345409 02 02 25.459 +09 54 15.60 20.41 w F52 – Pan-STARRS 2, Haleakala MPS 1700240
2022 10 28.355502 02 02 24.925 +09 54 12.02 20.53 w F52 – Pan-STARRS 2, Haleakala MPS 1700240
2022 10 28.365595 02 02 24.392 +09 54 08.19 20.55 w F52 – Pan-STARRS 2, Haleakala MPS 1700240
2022 10 31.325519 01 59 54.475 +09 36 14.99 20.59 w F52 – Pan-STARRS 2, Haleakala MPS 1700240
2022 10 31.336402 01 59 53.900 +09 36 11.12 20.57 w F52 – Pan-STARRS 2, Haleakala MPS 1700240
2022 10 31.347346 01 59 53.319 +09 36 07.23 20.63 w F52 – Pan-STARRS 2, Haleakala MPS 1700240
2022 10 31.358395 01 59 52.741 +09 36 03.26 20.51 w F52 – Pan-STARRS 2, Haleakala MPS 1700240
2022 11 01.285145 01 59 06.630 +09 30 33.68 20.81 w F52 – Pan-STARRS 2, Haleakala MPS 1700240
2022 11 01.297176 01 59 06.002 +09 30 29.57 20.59 w F52 – Pan-STARRS 2, Haleakala MPS 1700240
2022 11 01.309154 01 59 05.391 +09 30 25.17 20.59 w F52 – Pan-STARRS 2, Haleakala MPS 1700240
2022 11 03.284019 01 57 28.379 +09 18 56.86 20.45 i F52 – Pan-STARRS 2, Haleakala MPS 1700240
2022 11 03.297929 01 57 27.656 +09 18 51.99 20.36 i F52 – Pan-STARRS 2, Haleakala MPS 1700240
2022 11 03.311846 01 57 26.973 +09 18 47.02 20.23 i F52 – Pan-STARRS 2, Haleakala MPS 1700240
2022 11 03.325774 01 57 26.258 +09 18 42.47 20.25 i F52 – Pan-STARRS 2, Haleakala MPS 1700240
2022 11 14.312745 01 49 26.571 +08 22 38.19 20.92 w F52 – Pan-STARRS 2, Haleakala MPS 1715674
2022 11 14.324256 01 49 26.122 +08 22 35.21 20.88 w F52 – Pan-STARRS 2, Haleakala MPS 1715674
2022 11 14.335865 01 49 25.656 +08 22 31.97 20.84 w F52 – Pan-STARRS 2, Haleakala MPS 1715674
2022 11 14.347481 01 49 25.180 +08 22 29.07 20.88 w F52 – Pan-STARRS 2, Haleakala MPS 1715674